This is the latest recevied weather packets stored in our database for station/object KI6PPU. If no packets are shown the sender has not sent any weather packets the latest 10 day(s).
| Time | Temp. | Humidity | Pressure | Rain* | Wind** | Luminosity | Snow |
|---|---|---|---|---|---|---|---|
| 1777750317 | 18.33° C | 73% | 1015.6 hPa | 0 mm | - | 289 W/m² | - |
| 1777750011 | 18.89° C | 72% | 1015.6 hPa | 0 mm | - | 265 W/m² | - |
| 1777749709 | 18.89° C | 72% | 1015.4 hPa | 0 mm | - | 239 W/m² | - |
| 1777749406 | 18.89° C | 70% | 1015.5 hPa | 0 mm | - | 243 W/m² | - |
| 1777749103 | 19.44° C | 70% | 1015.5 hPa | 0 mm | - | 263 W/m² | - |
| 1777748800 | 20° C | 69% | 1015.6 hPa | 0 mm | - | 284 W/m² | - |
| 1777748499 | 19.44° C | 69% | 1015.4 hPa | 0 mm | - | 302 W/m² | - |
| 1777748193 | 20° C | 65% | 1015.5 hPa | 0 mm | - | 317 W/m² | - |
| 1777747890 | 20.56° C | 67% | 1015.4 hPa | 0 mm | - | 368 W/m² | - |
| 1777747586 | 20° C | 68% | 1015.2 hPa | 0 mm | - | 384 W/m² | - |
| 1777747281 | 20.56° C | 68% | 1015.4 hPa | 0 mm | - | 424 W/m² | - |
| 1777746978 | 20.56° C | 66% | 1015.7 hPa | 0 mm | - | 521 W/m² | - |
| 1777746675 | 20.56° C | 69% | 1015.6 hPa | 0 mm | - | 591 W/m² | - |
| 1777746369 | 20° C | 67% | 1015.6 hPa | 0 mm | - | 565 W/m² | - |
| 1777746065 | 20° C | 69% | 1015.5 hPa | 0 mm | - | 685 W/m² | - |
| 1777745764 | 20° C | 68% | 1015.4 hPa | 0 mm | - | 723 W/m² | - |
| 1777745462 | 20.56° C | 68% | 1015.5 hPa | 0 mm | - | 629 W/m² | - |
| 1777745159 | 20.56° C | 67% | 1015.3 hPa | 0 mm | - | 694 W/m² | - |
| 1777744856 | 20° C | 67% | 1015.4 hPa | 0 mm | - | 436 W/m² | - |
| 1777744550 | 20° C | 69% | 1015.4 hPa | 0 mm | - | 548 W/m² | - |
| 1777744246 | 18.89° C | 70% | 1015.4 hPa | 0 mm | - | 416 W/m² | - |
| 1777743943 | 19.44° C | 70% | 1015.2 hPa | 0 mm | - | 262 W/m² | - |
| 1777743639 | 20° C | 70% | 1014.9 hPa | 0 mm | - | 286 W/m² | - |
| 1777743336 | 20.56° C | 68% | 1014.8 hPa | 0 mm | - | 374 W/m² | - |
| 1777743029 | 20.56° C | 72% | 1014.9 hPa | 0 mm | - | 674 W/m² | - |
* Rain latest hour (hover to see other rain measurements)
** Current wind speed in m/s (hover to see current wind gust speed)